Regional Weather Roundup
Issued by NWS Cleveland, OH

Home | Current Version | Previous Version | Text Only | Print | Product List | Glossary On
Versions: 1 2 3 4 5 6 7 8 9 10 11 12 13 14 15 16 17 18 19 20 21 22 23 24 25 26 27 28 29 30 31 32 33 34 35 36 37 38 39 40 41 42 43 44 45 46 47 48 49 50
000
ASUS41 KCLE 260012
RWRCLE
OHIO REGIONAL WEATHER ROUNDUP
NATIONAL WEATHER SERVICE WILMINGTON, OH
700 PM EST SUN FEB 25 2018

NOTE: "FAIR" INDICATES FEW OR NO CLOUDS BELOW 12,000 FEET WITH NO
SIGNIFICANT WEATHER AND/OR OBSTRUCTIONS TO VISIBILITY.

OHZ001>008-015>018-024>027-034-035-043-044-260100-
   NORTHWEST OHIO

CITY           SKY/WX    TMP DP  RH WIND       PRES   REMARKS
DEFIANCE       FAIR      40  29  64 W9G16     30.05R
FINDLAY        FAIR      40  31  70 W10       30.05R
TOLEDO EXPRESS FAIR      40  29  64 W16       30.04R
TOLEDO EXEC    FAIR      41  28  60 W15       30.05R
LIMA           FAIR      41  34  76 W10       30.06R
$$

OHZ009>014-019>023-028>033-038-089-260100-
   NORTHEAST OHIO

CITY           SKY/WX    TMP DP  RH WIND       PRES   REMARKS
CLE-HOPKINS    MOCLDY    43  34  70 W14       30.04R
CLE-LAKEFRONT  FAIR      40  33  76 W8        30.01R
CUY CO. ARPT   MOCLDY    43  34  70 W12       30.01R
LORAIN-ELYRIA  FAIR      41  28  60 W18       30.04R
ASHTABULA      FAIR      41  33  73 W5        30.00R
AKRON-CANTON   MOCLDY    45  30  55 W12       30.01R
WOOSTER        FAIR      43  32  65 W12       30.04R
MANSFIELD      FAIR      42  35  76 SW10      30.05R
YOUNGSTOWN     MOCLDY    45  30  55 SW9       29.98R
$$

OHZ042-051>053-060>062-070>072-077>081-260100-
  SOUTHWEST OHIO

CITY           SKY/WX    TMP DP  RH WIND       PRES   REMARKS
CINC-COVINGTON MOCLDY    44  31  60 SW6       30.10R
CINC-LUNKEN    FAIR      46  32  58 SW8       30.12R
HAMILTON       FAIR      47  33  58 SW5       30.11R
DAYTON         CLOUDY    42  34  73 SW9       30.09R
WRIGHT-PAT AFB FAIR      45  32  60 SW9       30.08R
DAYTON GENERAL FAIR      46  31  55 SW7       30.07R
WILMINGTON     FAIR      44  32  62 W9        30.08R
$$

OHZ036-037-039>041-045>050-054>059-063>069-073>076-082>088-260100-
  CENTRAL AND SOUTHEAST OHIO

CITY           SKY/WX    TMP DP  RH WIND       PRES   REMARKS
COLUMBUS       MOCLDY    47  32  56 W8        30.06R
OSU AIRPORT    FAIR      44  34  67 W5        30.06R
BOLTON FIELD   CLEAR     45  34  65 W8        30.07R
RICKENBACK AFB FAIR      44  34  67 W10       30.07R
NEWARK         FAIR      46  33  60 W7        30.05R
MARION         FAIR      42  35  76 W6        30.06R
LANCASTER      FAIR      46  35  65 W5        30.07R
ZANESVILLE     FAIR      47  31  53 W6        30.05R
NEW PHILLY     FAIR      47  30  51 CALM      30.03R
$$




USA.gov is the U.S. government's official web portal to all federal, state and local government web resources and services.